羽根田-カンポス彗星

D/1978 R1 ( Haneda-Campos ) 2004

English version
Home page
Updated on February 14, 2004

---------------------------------------------------------------------

・ プロフィール

・ 軌道要素

Perturbed ephemeris below is based on elements from NK 504. 

 Epoch = 2453000.50000 TT   T = 2453014.65368 TT
 Peri. =  307.10729         a =     3.4501524 AU
 Node  =   66.58818 J2000.0 e =     0.6306471
 Incl. =    4.94383         q =     1.2743239 AU

・ 星図

・ 光度変化

        m1 = 13.0 + 5 logΔ + 25.0 log r

---------------------------------------------------------------------

軌道要素はMinor Planet & Comet Ephemeris Serviceで計算したものです。
星図は StellaNavigator Ver.2.0 for Windows (アストロアーツ 編著 / アスキー出版局刊) で作成したものです。
光度グラフはComet for Windowsで作成したものです。

---------------------------------------------------------------------

Copyright(C) Seiichi Yoshida (comet@aerith.net). All rights reserved.